Year,Month,Day,Hour,Minute,Value (Times are PST for barometer in hPa)
2011,11,22,00,00,989.74
2011,11,22,00,01,989.74
2011,11,22,00,02,989.74
2011,11,22,00,03,989.74
2011,11,22,00,04,989.74
2011,11,22,00,05,989.74
2011,11,22,00,06,989.74
2011,11,22,00,07,989.74
2011,11,22,00,08,989.74
2011,11,22,00,09,989.74
2011,11,22,00,10,989.74
2011,11,22,00,11,989.74
2011,11,22,00,12,989.74
2011,11,22,00,13,989.74
2011,11,22,00,14,989.74
2011,11,22,00,15,989.46
2011,11,22,00,16,989.44
2011,11,22,00,17,989.44
2011,11,22,00,18,989.44
2011,11,22,00,19,989.44
2011,11,22,00,20,989.44
2011,11,22,00,21,989.44
2011,11,22,00,22,989.44
2011,11,22,00,23,989.44
2011,11,22,00,24,989.44
2011,11,22,00,25,989.44
2011,11,22,00,26,989.44
2011,11,22,00,27,989.44
2011,11,22,00,28,989.44
2011,11,22,00,29,989.44
2011,11,22,00,30,989.02
2011,11,22,00,31,989.00
2011,11,22,00,32,989.00
2011,11,22,00,33,989.00
2011,11,22,00,34,989.00
2011,11,22,00,35,989.00
2011,11,22,00,36,989.00
2011,11,22,00,37,989.00
2011,11,22,00,38,989.00
2011,11,22,00,39,989.00
2011,11,22,00,40,989.00
2011,11,22,00,41,989.00
2011,11,22,00,42,989.00
2011,11,22,00,43,989.00
2011,11,22,00,44,989.00
2011,11,22,00,45,988.77
2011,11,22,00,46,988.76
2011,11,22,00,47,988.76
2011,11,22,00,48,988.76
2011,11,22,00,49,988.76
2011,11,22,00,50,988.76
2011,11,22,00,51,988.76
2011,11,22,00,52,988.76
2011,11,22,00,53,988.76
2011,11,22,00,54,988.76
2011,11,22,00,55,988.76
2011,11,22,00,56,988.76
2011,11,22,00,57,988.76
2011,11,22,00,58,988.76
2011,11,22,00,59,988.76
2011,11,22,01,00,988.47
2011,11,22,01,01,988.45
2011,11,22,01,02,988.45
2011,11,22,01,03,988.45
2011,11,22,01,04,988.45
2011,11,22,01,05,988.45
2011,11,22,01,06,988.45
2011,11,22,01,07,988.45
2011,11,22,01,08,988.45
2011,11,22,01,09,988.45
2011,11,22,01,10,988.45
2011,11,22,01,11,988.45
2011,11,22,01,12,988.45
2011,11,22,01,13,988.45
2011,11,22,01,14,988.45
2011,11,22,01,15,988.19
2011,11,22,01,16,988.18
2011,11,22,01,17,988.18
2011,11,22,01,18,988.18
2011,11,22,01,19,988.18
2011,11,22,01,20,988.18
2011,11,22,01,21,988.18
2011,11,22,01,22,988.18
2011,11,22,01,23,988.18
2011,11,22,01,24,988.18
2011,11,22,01,25,988.18
2011,11,22,01,26,988.18
2011,11,22,01,27,988.18
2011,11,22,01,28,988.18
2011,11,22,01,29,988.18
2011,11,22,01,30,987.92
2011,11,22,01,31,987.91
2011,11,22,01,32,987.91
2011,11,22,01,33,987.91
2011,11,22,01,34,987.91
2011,11,22,01,35,987.91
2011,11,22,01,36,987.91
2011,11,22,01,37,987.91
2011,11,22,01,38,987.91
2011,11,22,01,39,987.91
2011,11,22,01,40,987.91
2011,11,22,01,41,987.91
2011,11,22,01,42,987.91
2011,11,22,01,43,987.91
2011,11,22,01,44,987.91
2011,11,22,01,45,987.49
2011,11,22,01,46,987.47
2011,11,22,01,47,987.47
2011,11,22,01,48,987.47
2011,11,22,01,49,987.47
2011,11,22,01,50,987.47
2011,11,22,01,51,987.47
2011,11,22,01,52,987.47
2011,11,22,01,53,987.47
2011,11,22,01,54,987.47
2011,11,22,01,55,987.47
2011,11,22,01,56,987.47
2011,11,22,01,57,987.47
2011,11,22,01,58,987.47
2011,11,22,01,59,987.47
2011,11,22,02,00,987.38
2011,11,22,02,01,987.37
2011,11,22,02,02,987.37
2011,11,22,02,03,987.37
2011,11,22,02,04,987.37
2011,11,22,02,05,987.37
2011,11,22,02,06,987.37
2011,11,22,02,07,987.37
2011,11,22,02,08,987.37
2011,11,22,02,09,987.37
2011,11,22,02,10,987.37
2011,11,22,02,11,987.37
2011,11,22,02,12,987.37
2011,11,22,02,13,987.37
2011,11,22,02,14,987.37
2011,11,22,02,15,986.86
2011,11,22,02,16,986.83
2011,11,22,02,17,986.83
2011,11,22,02,18,986.83
2011,11,22,02,19,986.83
2011,11,22,02,20,986.83
2011,11,22,02,21,986.83
2011,11,22,02,22,986.83
2011,11,22,02,23,986.83
2011,11,22,02,24,986.83
2011,11,22,02,25,986.83
2011,11,22,02,26,986.83
2011,11,22,02,27,986.83
2011,11,22,02,28,986.83
2011,11,22,02,29,986.83
2011,11,22,02,30,986.76
2011,11,22,02,31,986.76
2011,11,22,02,32,986.76
2011,11,22,02,33,986.76
2011,11,22,02,34,986.76
2011,11,22,02,35,986.76
2011,11,22,02,36,986.76
2011,11,22,02,37,986.76
2011,11,22,02,38,986.76
2011,11,22,02,39,986.76
2011,11,22,02,40,986.76
2011,11,22,02,41,986.76
2011,11,22,02,42,986.76
2011,11,22,02,43,986.76
2011,11,22,02,44,986.76
2011,11,22,02,45,986.50
2011,11,22,02,46,986.49
2011,11,22,02,47,986.49
2011,11,22,02,48,986.49
2011,11,22,02,49,986.49
2011,11,22,02,50,986.49
2011,11,22,02,51,986.49
2011,11,22,02,52,986.49
2011,11,22,02,53,986.49
2011,11,22,02,54,986.49
2011,11,22,02,55,986.49
2011,11,22,02,56,986.49
2011,11,22,02,57,986.49
2011,11,22,02,58,986.49
2011,11,22,02,59,986.49
2011,11,22,03,00,986.42
2011,11,22,03,01,986.42
2011,11,22,03,02,986.42
2011,11,22,03,03,986.42
2011,11,22,03,04,986.42
2011,11,22,03,05,986.42
2011,11,22,03,06,986.42
2011,11,22,03,07,986.42
2011,11,22,03,08,986.42
2011,11,22,03,09,986.42
2011,11,22,03,10,986.42
2011,11,22,03,11,986.42
2011,11,22,03,12,986.42
2011,11,22,03,13,986.42
2011,11,22,03,14,986.42
2011,11,22,03,15,986.30
2011,11,22,03,16,986.29
2011,11,22,03,17,986.29
2011,11,22,03,18,986.29
2011,11,22,03,19,986.29
2011,11,22,03,20,986.29
2011,11,22,03,21,986.29
2011,11,22,03,22,986.29
2011,11,22,03,23,986.29
2011,11,22,03,24,986.29
2011,11,22,03,25,986.29
2011,11,22,03,26,986.29
2011,11,22,03,27,986.29
2011,11,22,03,28,986.29
2011,11,22,03,29,986.29
2011,11,22,03,30,987.34
2011,11,22,03,31,987.40
2011,11,22,03,32,987.40
2011,11,22,03,33,987.40
2011,11,22,03,34,987.40
2011,11,22,03,35,987.40
2011,11,22,03,36,987.40
2011,11,22,03,37,987.40
2011,11,22,03,38,987.40
2011,11,22,03,39,987.40
2011,11,22,03,40,987.40
2011,11,22,03,41,987.40
2011,11,22,03,42,987.40
2011,11,22,03,43,987.40
2011,11,22,03,44,987.40
2011,11,22,03,45,987.44
2011,11,22,03,46,987.44
2011,11,22,03,47,987.44
2011,11,22,03,48,987.44
2011,11,22,03,49,987.44
2011,11,22,03,50,987.44
2011,11,22,03,51,987.44
2011,11,22,03,52,987.44
2011,11,22,03,53,987.44
2011,11,22,03,54,987.44
2011,11,22,03,55,987.44
2011,11,22,03,56,987.44
2011,11,22,03,57,987.44
2011,11,22,03,58,987.44
2011,11,22,03,59,987.44
2011,11,22,04,00,988.37
2011,11,22,04,01,988.42
2011,11,22,04,02,988.42
2011,11,22,04,03,988.42
2011,11,22,04,04,988.42
2011,11,22,04,05,988.42
2011,11,22,04,06,988.42
2011,11,22,04,07,988.42
2011,11,22,04,08,988.42
2011,11,22,04,09,988.42
2011,11,22,04,10,988.42
2011,11,22,04,11,988.42
2011,11,22,04,12,988.42
2011,11,22,04,13,988.42
2011,11,22,04,14,988.42
2011,11,22,04,15,989.00
2011,11,22,04,16,989.03
2011,11,22,04,17,989.03
2011,11,22,04,18,989.03
2011,11,22,04,19,989.03
2011,11,22,04,20,989.03
2011,11,22,04,21,989.03
2011,11,22,04,22,989.03
2011,11,22,04,23,989.03
2011,11,22,04,24,989.03
2011,11,22,04,25,989.03
2011,11,22,04,26,989.03
2011,11,22,04,27,989.03
2011,11,22,04,28,989.03
2011,11,22,04,29,989.03
2011,11,22,04,30,989.80
2011,11,22,04,31,989.84
2011,11,22,04,32,989.84
2011,11,22,04,33,989.84
2011,11,22,04,34,989.84
2011,11,22,04,35,989.84
2011,11,22,04,36,989.84
2011,11,22,04,37,989.84
2011,11,22,04,38,989.84
2011,11,22,04,39,989.84
2011,11,22,04,40,989.84
2011,11,22,04,41,989.84
2011,11,22,04,42,989.84
2011,11,22,04,43,989.84
2011,11,22,04,44,989.84
2011,11,22,04,45,990.10
2011,11,22,04,46,990.11
2011,11,22,04,47,990.11
2011,11,22,04,48,990.11
2011,11,22,04,49,990.11
2011,11,22,04,50,990.11
2011,11,22,04,51,990.11
2011,11,22,04,52,990.11
2011,11,22,04,53,990.11
2011,11,22,04,54,990.11
2011,11,22,04,55,990.11
2011,11,22,04,56,990.11
2011,11,22,04,57,990.11
2011,11,22,04,58,990.11
2011,11,22,04,59,990.11
2011,11,22,05,00,990.47
2011,11,22,05,01,990.49
2011,11,22,05,02,990.49
2011,11,22,05,03,990.49
2011,11,22,05,04,990.49
2011,11,22,05,05,990.49
2011,11,22,05,06,990.49
2011,11,22,05,07,990.49
2011,11,22,05,08,990.49
2011,11,22,05,09,990.49
2011,11,22,05,10,990.49
2011,11,22,05,11,990.49
2011,11,22,05,12,990.49
2011,11,22,05,13,990.49
2011,11,22,05,14,990.49
2011,11,22,05,15,990.55
2011,11,22,05,16,990.55
2011,11,22,05,17,990.55
2011,11,22,05,18,990.55
2011,11,22,05,19,990.55
2011,11,22,05,20,990.55
2011,11,22,05,21,990.55
2011,11,22,05,22,990.55
2011,11,22,05,23,990.55
2011,11,22,05,24,990.55
2011,11,22,05,25,990.55
2011,11,22,05,26,990.55
2011,11,22,05,27,990.55
2011,11,22,05,28,990.55
2011,11,22,05,29,990.55
2011,11,22,05,30,991.26
2011,11,22,05,31,991.30
2011,11,22,05,32,991.30
2011,11,22,05,33,991.30
2011,11,22,05,34,991.30
2011,11,22,05,35,991.30
2011,11,22,05,36,991.30
2011,11,22,05,37,991.30
2011,11,22,05,38,991.30
2011,11,22,05,39,991.30
2011,11,22,05,40,991.30
2011,11,22,05,41,991.30
2011,11,22,05,42,991.30
2011,11,22,05,43,991.30
2011,11,22,05,44,991.30
2011,11,22,05,45,991.26
2011,11,22,05,46,991.26
2011,11,22,05,47,991.26
2011,11,22,05,48,991.26
2011,11,22,05,49,991.26
2011,11,22,05,50,991.26
2011,11,22,05,51,991.26
2011,11,22,05,52,991.26
2011,11,22,05,53,991.26
2011,11,22,05,54,991.26
2011,11,22,05,55,991.26
2011,11,22,05,56,991.26
2011,11,22,05,57,991.26
2011,11,22,05,58,991.26
2011,11,22,05,59,991.26
2011,11,22,06,00,991.97
2011,11,22,06,01,992.01
2011,11,22,06,02,992.01
2011,11,22,06,03,992.01
2011,11,22,06,04,992.01
2011,11,22,06,05,992.01
2011,11,22,06,06,992.01
2011,11,22,06,07,992.01
2011,11,22,06,08,992.01
2011,11,22,06,09,992.01
2011,11,22,06,10,992.01
2011,11,22,06,11,992.01
2011,11,22,06,12,992.01
2011,11,22,06,13,992.01
2011,11,22,06,14,992.01
2011,11,22,06,15,992.04
2011,11,22,06,16,992.04
2011,11,22,06,17,992.04
2011,11,22,06,18,992.04
2011,11,22,06,19,992.04
2011,11,22,06,21,992.04
2011,11,22,06,22,992.04
2011,11,22,06,23,992.04
2011,11,22,06,26,992.04
2011,11,22,06,27,992.04
2011,11,22,06,28,992.04
2011,11,22,06,30,992.40
2011,11,22,06,31,992.52
2011,11,22,06,32,992.52
2011,11,22,06,33,992.52
2011,11,22,06,34,992.52
2011,11,22,06,35,992.52
2011,11,22,06,37,992.52
2011,11,22,06,38,992.52
2011,11,22,06,39,992.52
2011,11,22,06,42,992.52
2011,11,22,06,43,992.52
2011,11,22,06,45,992.95
2011,11,22,06,46,993.09
2011,11,22,06,49,993.09
2011,11,22,06,50,993.09
2011,11,22,06,51,993.09
2011,11,22,06,54,993.09
2011,11,22,06,55,993.09
2011,11,22,06,56,993.09
2011,11,22,06,59,993.09
2011,11,22,07,00,993.09
2011,11,22,07,01,993.09
2011,11,22,07,02,993.09
2011,11,22,07,05,993.09
2011,11,22,07,06,993.09
2011,11,22,07,07,993.09
2011,11,22,07,08,993.09
2011,11,22,07,09,993.09
2011,11,22,07,12,993.09
2011,11,22,07,13,993.09
2011,11,22,07,14,993.09
2011,11,22,07,15,993.60
2011,11,22,07,16,993.63
2011,11,22,07,17,993.63
2011,11,22,07,18,993.63
2011,11,22,07,19,993.63
2011,11,22,07,20,993.63
2011,11,22,07,21,993.63
2011,11,22,07,22,993.63
2011,11,22,07,23,993.63
2011,11,22,07,24,993.63
2011,11,22,07,25,993.63
2011,11,22,07,26,993.63
2011,11,22,07,27,993.63
2011,11,22,07,28,993.63
2011,11,22,07,29,993.63
2011,11,22,07,30,993.92
2011,11,22,07,31,993.94
2011,11,22,07,32,993.94
2011,11,22,07,33,993.94
2011,11,22,07,34,993.94
2011,11,22,07,35,993.94
2011,11,22,07,36,993.94
2011,11,22,07,37,993.94
2011,11,22,07,38,993.94
2011,11,22,07,39,993.94
2011,11,22,07,40,993.94
2011,11,22,07,41,993.94
2011,11,22,07,42,993.94
2011,11,22,07,43,993.94
2011,11,22,07,44,993.94
2011,11,22,07,45,994.17
2011,11,22,07,46,994.18
2011,11,22,07,47,994.18
2011,11,22,07,48,994.18
2011,11,22,07,49,994.18
2011,11,22,07,50,994.18
2011,11,22,07,51,994.18
2011,11,22,07,52,994.18
2011,11,22,07,53,994.18
2011,11,22,07,54,994.18
2011,11,22,07,55,994.18
2011,11,22,07,56,994.18
2011,11,22,07,57,994.18
2011,11,22,07,58,994.18
2011,11,22,07,59,994.18
2011,11,22,08,00,995.07
2011,11,22,08,01,995.12
2011,11,22,08,02,995.12
2011,11,22,08,03,995.12
2011,11,22,08,04,995.12
2011,11,22,08,05,995.12
2011,11,22,08,06,995.12
2011,11,22,08,07,995.12
2011,11,22,08,08,995.12
2011,11,22,08,09,995.12
2011,11,22,08,10,995.12
2011,11,22,08,11,995.12
2011,11,22,08,12,995.12
2011,11,22,08,13,995.12
2011,11,22,08,14,995.12
2011,11,22,08,15,995.70
2011,11,22,08,16,995.73
2011,11,22,08,17,995.73
2011,11,22,08,18,995.73
2011,11,22,08,19,995.73
2011,11,22,08,20,995.73
2011,11,22,08,21,995.73
2011,11,22,08,22,995.73
2011,11,22,08,23,995.73
2011,11,22,08,24,995.73
2011,11,22,08,25,995.73
2011,11,22,08,26,995.73
2011,11,22,08,27,995.73
2011,11,22,08,28,995.73
2011,11,22,08,29,995.73
2011,11,22,08,30,996.25
2011,11,22,08,31,996.28
2011,11,22,08,32,996.28
2011,11,22,08,33,996.28
2011,11,22,08,34,996.28
2011,11,22,08,35,996.28
2011,11,22,08,36,996.28
2011,11,22,08,37,996.28
2011,11,22,08,38,996.28
2011,11,22,08,39,996.28
2011,11,22,08,40,996.28
2011,11,22,08,41,996.28
2011,11,22,08,42,996.28
2011,11,22,08,43,996.28
2011,11,22,08,44,996.28
2011,11,22,08,45,996.38
2011,11,22,08,46,996.38
2011,11,22,08,47,996.38
2011,11,22,08,48,996.38
2011,11,22,08,49,996.38
2011,11,22,08,50,996.38
2011,11,22,08,51,996.38
2011,11,22,08,52,996.38
2011,11,22,08,53,996.38
2011,11,22,08,54,996.38
2011,11,22,08,55,996.38
2011,11,22,08,56,996.38
2011,11,22,08,57,996.38
2011,11,22,08,58,996.38
2011,11,22,08,59,996.38
2011,11,22,09,00,996.76
2011,11,22,09,01,996.78
2011,11,22,09,02,996.78
2011,11,22,09,03,996.78
2011,11,22,09,04,996.78
2011,11,22,09,05,996.78
2011,11,22,09,06,996.78
2011,11,22,09,07,996.78
2011,11,22,09,08,996.78
2011,11,22,09,09,996.78
2011,11,22,09,10,996.78
2011,11,22,09,11,996.78
2011,11,22,09,12,996.78
2011,11,22,09,13,996.78
2011,11,22,09,14,996.78
2011,11,22,09,15,997.08
2011,11,22,09,16,997.09
2011,11,22,09,17,997.09
2011,11,22,09,18,997.09
2011,11,22,09,19,997.09
2011,11,22,09,20,997.09
2011,11,22,09,21,997.09
2011,11,22,09,22,997.09
2011,11,22,09,23,997.09
2011,11,22,09,24,997.09
2011,11,22,09,25,997.09
2011,11,22,09,26,997.09
2011,11,22,09,27,997.09
2011,11,22,09,28,997.09
2011,11,22,09,29,997.09
2011,11,22,09,30,997.35
2011,11,22,09,31,997.36
2011,11,22,09,32,997.36
2011,11,22,09,33,997.36
2011,11,22,09,34,997.36
2011,11,22,09,35,997.36
2011,11,22,09,36,997.36
2011,11,22,09,37,997.36
2011,11,22,09,38,997.36
2011,11,22,09,39,997.36
2011,11,22,09,40,997.36
2011,11,22,09,41,997.36
2011,11,22,09,42,997.36
2011,11,22,09,43,997.36
2011,11,22,09,44,997.36
2011,11,22,09,45,997.78
2011,11,22,09,46,997.80
2011,11,22,09,47,997.80
2011,11,22,09,48,997.80
2011,11,22,09,49,997.80
2011,11,22,09,50,997.80
2011,11,22,09,51,997.80
2011,11,22,09,52,997.80
2011,11,22,09,53,997.80
2011,11,22,09,54,997.80
2011,11,22,09,55,997.80
2011,11,22,09,56,997.80
2011,11,22,09,57,997.80
2011,11,22,09,58,997.80
2011,11,22,09,59,997.80
2011,11,22,10,00,997.90
2011,11,22,10,01,997.90
2011,11,22,10,02,997.90
2011,11,22,10,03,997.90
2011,11,22,10,04,997.90
2011,11,22,10,05,997.90
2011,11,22,10,06,997.90
2011,11,22,10,07,997.90
2011,11,22,10,08,997.90
2011,11,22,10,09,997.90
2011,11,22,10,10,997.90
2011,11,22,10,11,997.90
2011,11,22,10,12,997.90
2011,11,22,10,13,997.90
2011,11,22,10,14,997.90
2011,11,22,10,15,997.90
2011,11,22,10,16,997.90
2011,11,22,10,17,997.90
2011,11,22,10,18,997.90
2011,11,22,10,19,997.90
2011,11,22,10,20,997.90
2011,11,22,10,21,997.90
2011,11,22,10,22,997.90
2011,11,22,10,23,997.90
2011,11,22,10,24,997.90
2011,11,22,10,25,997.90
2011,11,22,10,26,997.90
2011,11,22,10,27,997.90
2011,11,22,10,28,997.90
2011,11,22,10,29,997.90
2011,11,22,10,30,998.32
2011,11,22,10,31,998.34
2011,11,22,10,32,998.34
2011,11,22,10,33,998.34
2011,11,22,10,34,998.34
2011,11,22,10,35,998.34
2011,11,22,10,36,998.34
2011,11,22,10,37,998.34
2011,11,22,10,38,998.34
2011,11,22,10,39,998.34
2011,11,22,10,40,998.34
2011,11,22,10,41,998.34
2011,11,22,10,42,998.34
2011,11,22,10,43,998.34
2011,11,22,10,44,998.34
2011,11,22,10,45,998.34
2011,11,22,10,46,998.34
2011,11,22,10,47,998.34
2011,11,22,10,48,998.34
2011,11,22,10,49,998.34
2011,11,22,10,50,998.34
2011,11,22,10,51,998.34
2011,11,22,10,52,998.34
2011,11,22,10,53,998.34
2011,11,22,10,54,998.34
2011,11,22,10,55,998.34
2011,11,22,10,56,998.34
2011,11,22,10,57,998.34
2011,11,22,10,58,998.34
2011,11,22,10,59,998.34
2011,11,22,11,00,998.57
2011,11,22,11,01,998.58
2011,11,22,11,02,998.58
2011,11,22,11,03,998.58
2011,11,22,11,04,998.58
2011,11,22,11,05,998.58
2011,11,22,11,06,998.58
2011,11,22,11,07,998.58
2011,11,22,11,08,998.58
2011,11,22,11,09,998.58
2011,11,22,11,10,998.58
2011,11,22,11,11,998.58
2011,11,22,11,12,998.58
2011,11,22,11,13,998.58
2011,11,22,11,14,998.58
2011,11,22,11,15,998.61
2011,11,22,11,16,998.61
2011,11,22,11,17,998.61
2011,11,22,11,18,998.61
2011,11,22,11,19,998.61
2011,11,22,11,20,998.61
2011,11,22,11,21,998.61
2011,11,22,11,22,998.61
2011,11,22,11,23,998.61
2011,11,22,11,24,998.61
2011,11,22,11,25,998.61
2011,11,22,11,26,998.61
2011,11,22,11,27,998.61
2011,11,22,11,28,998.61
2011,11,22,11,29,998.61
2011,11,22,11,30,998.84
2011,11,22,11,31,998.85
2011,11,22,11,32,998.85
2011,11,22,11,33,998.85
2011,11,22,11,34,998.85
2011,11,22,11,35,998.85
2011,11,22,11,36,998.85
2011,11,22,11,37,998.85
2011,11,22,11,38,998.85
2011,11,22,11,39,998.85
2011,11,22,11,40,998.85
2011,11,22,11,41,998.85
2011,11,22,11,42,998.85
2011,11,22,11,43,998.85
2011,11,22,11,44,998.85
2011,11,22,11,45,999.30
2011,11,22,11,46,999.32
2011,11,22,11,47,999.32
2011,11,22,11,48,999.32
2011,11,22,11,49,999.32
2011,11,22,11,50,999.32
2011,11,22,11,51,999.32
2011,11,22,11,52,999.32
2011,11,22,11,53,999.32
2011,11,22,11,54,999.32
2011,11,22,11,55,999.32
2011,11,22,11,56,999.32
2011,11,22,11,57,999.32
2011,11,22,11,58,999.32
2011,11,22,11,59,999.32
2011,11,22,12,00,999.13
2011,11,22,12,01,999.12
2011,11,22,12,02,999.12
2011,11,22,12,03,999.12
2011,11,22,12,04,999.12
2011,11,22,12,05,999.12
2011,11,22,12,06,999.12
2011,11,22,12,07,999.12
2011,11,22,12,08,999.12
2011,11,22,12,09,999.12
2011,11,22,12,10,999.12
2011,11,22,12,11,999.12
2011,11,22,12,12,999.12
2011,11,22,12,13,999.12
2011,11,22,12,14,999.12
2011,11,22,12,15,999.00
2011,11,22,12,16,998.99
2011,11,22,12,17,998.99
2011,11,22,12,18,998.99
2011,11,22,12,19,998.99
2011,11,22,12,20,998.99
2011,11,22,12,21,998.99
2011,11,22,12,22,998.99
2011,11,22,12,23,998.99
2011,11,22,12,24,998.99
2011,11,22,12,25,998.99
2011,11,22,12,26,998.99
2011,11,22,12,27,998.99
2011,11,22,12,28,998.99
2011,11,22,12,29,998.99
2011,11,22,12,30,998.89
2011,11,22,12,31,998.88
2011,11,22,12,32,998.88
2011,11,22,12,33,998.88
2011,11,22,12,34,998.88
2011,11,22,12,35,998.88
2011,11,22,12,36,998.88
2011,11,22,12,37,998.88
2011,11,22,12,38,998.88
2011,11,22,12,39,998.88
2011,11,22,12,40,998.88
2011,11,22,12,41,998.88
2011,11,22,12,42,998.88
2011,11,22,12,43,998.88
2011,11,22,12,44,998.88
2011,11,22,12,45,998.85
2011,11,22,12,46,998.85
2011,11,22,12,47,998.85
2011,11,22,12,48,998.85
2011,11,22,12,49,998.85
2011,11,22,12,50,998.85
2011,11,22,12,51,998.85
2011,11,22,12,52,998.85
2011,11,22,12,53,998.85
2011,11,22,12,54,998.85
2011,11,22,12,55,998.85
2011,11,22,12,56,998.85
2011,11,22,12,57,998.85
2011,11,22,12,58,998.85
2011,11,22,12,59,998.85
2011,11,22,13,00,998.85
2011,11,22,13,01,998.85
2011,11,22,13,02,998.85
2011,11,22,13,03,998.85
2011,11,22,13,04,998.85
2011,11,22,13,05,998.85
2011,11,22,13,06,998.85
2011,11,22,13,07,998.85
2011,11,22,13,08,998.85
2011,11,22,13,09,998.85
2011,11,22,13,10,998.85
2011,11,22,13,11,998.85
2011,11,22,13,12,998.85
2011,11,22,13,13,998.85
2011,11,22,13,14,998.85
2011,11,22,13,15,998.76
2011,11,22,13,16,998.75
2011,11,22,13,17,998.75
2011,11,22,13,18,998.75
2011,11,22,13,19,998.75
2011,11,22,13,20,998.75
2011,11,22,13,21,998.75
2011,11,22,13,22,998.75
2011,11,22,13,23,998.75
2011,11,22,13,24,998.75
2011,11,22,13,25,998.75
2011,11,22,13,26,998.75
2011,11,22,13,27,998.75
2011,11,22,13,28,998.75
2011,11,22,13,29,998.75
2011,11,22,13,30,998.55
2011,11,22,13,31,998.54
2011,11,22,13,32,998.54
2011,11,22,13,33,998.54
2011,11,22,13,34,998.54
2011,11,22,13,35,998.54
2011,11,22,13,36,998.54
2011,11,22,13,37,998.54
2011,11,22,13,38,998.54
2011,11,22,13,39,998.54
2011,11,22,13,40,998.54
2011,11,22,13,41,998.54
2011,11,22,13,42,998.54
2011,11,22,13,43,998.54
2011,11,22,13,44,998.54
2011,11,22,13,45,998.64
2011,11,22,13,46,998.65
2011,11,22,13,47,998.65
2011,11,22,13,48,998.65
2011,11,22,13,49,998.65
2011,11,22,13,50,998.65
2011,11,22,13,51,998.65
2011,11,22,13,52,998.65
2011,11,22,13,53,998.65
2011,11,22,13,54,998.65
2011,11,22,13,55,998.65
2011,11,22,13,56,998.65
2011,11,22,13,57,998.65
2011,11,22,13,58,998.65
2011,11,22,13,59,998.65
2011,11,22,14,00,998.42
2011,11,22,14,01,998.41
2011,11,22,14,02,998.41
2011,11,22,14,03,998.41
2011,11,22,14,04,998.41
2011,11,22,14,05,998.41
2011,11,22,14,06,998.41
2011,11,22,14,07,998.41
2011,11,22,14,08,998.41
2011,11,22,14,09,998.41
2011,11,22,14,10,998.41
2011,11,22,14,11,998.41
2011,11,22,14,12,998.41
2011,11,22,14,13,998.41
2011,11,22,14,14,998.41
2011,11,22,14,15,998.38
2011,11,22,14,16,998.38
2011,11,22,14,17,998.38
2011,11,22,14,18,998.38
2011,11,22,14,19,998.38
2011,11,22,14,20,998.38
2011,11,22,14,21,998.38
2011,11,22,14,22,998.38
2011,11,22,14,23,998.38
2011,11,22,14,24,998.38
2011,11,22,14,25,998.38
2011,11,22,14,26,998.38
2011,11,22,14,27,998.38
2011,11,22,14,28,998.38
2011,11,22,14,29,998.38
2011,11,22,14,30,998.31
2011,11,22,14,31,998.31
2011,11,22,14,32,998.31
2011,11,22,14,33,998.31
2011,11,22,14,34,998.31
2011,11,22,14,35,998.31
2011,11,22,14,36,998.31
2011,11,22,14,37,998.31
2011,11,22,14,38,998.31
2011,11,22,14,39,998.31
2011,11,22,14,40,998.31
2011,11,22,14,41,998.31
2011,11,22,14,42,998.31
2011,11,22,14,43,998.31
2011,11,22,14,44,998.31
2011,11,22,14,45,998.24
2011,11,22,14,46,998.24
2011,11,22,14,47,998.24
2011,11,22,14,48,998.24
2011,11,22,14,49,998.24
2011,11,22,14,50,998.24
2011,11,22,14,51,998.24
2011,11,22,14,52,998.24
2011,11,22,14,53,998.24
2011,11,22,14,54,998.24
2011,11,22,14,55,998.24
2011,11,22,14,56,998.24
2011,11,22,14,57,998.24
2011,11,22,14,58,998.24
2011,11,22,14,59,998.24
2011,11,22,15,00,998.24
2011,11,22,15,01,998.24
2011,11,22,15,02,998.24
2011,11,22,15,03,998.24
2011,11,22,15,04,998.24
2011,11,22,15,05,998.24
2011,11,22,15,06,998.24
2011,11,22,15,07,998.24
2011,11,22,15,08,998.24
2011,11,22,15,09,998.24
2011,11,22,15,10,998.24
2011,11,22,15,11,998.24
2011,11,22,15,12,998.24
2011,11,22,15,13,998.24
2011,11,22,15,14,998.24
2011,11,22,15,15,998.31
2011,11,22,15,16,998.31
2011,11,22,15,17,998.31
2011,11,22,15,18,998.31
2011,11,22,15,19,998.31
2011,11,22,15,20,998.31
2011,11,22,15,21,998.31
2011,11,22,15,22,998.31
2011,11,22,15,23,998.31
2011,11,22,15,24,998.31
2011,11,22,15,25,998.31
2011,11,22,15,26,998.31
2011,11,22,15,27,998.31
2011,11,22,15,28,998.31
2011,11,22,15,29,998.31
2011,11,22,15,30,998.05
2011,11,22,15,31,998.04
2011,11,22,15,32,998.04
2011,11,22,15,33,998.04
2011,11,22,15,34,998.04
2011,11,22,15,35,998.04
2011,11,22,15,36,998.04
2011,11,22,15,37,998.04
2011,11,22,15,38,998.04
2011,11,22,15,39,998.04
2011,11,22,15,40,998.04
2011,11,22,15,41,998.04
2011,11,22,15,42,998.04
2011,11,22,15,43,998.04
2011,11,22,15,44,998.04
2011,11,22,15,45,997.95
2011,11,22,15,46,997.94
2011,11,22,15,47,997.94
2011,11,22,15,48,997.94
2011,11,22,15,49,997.94
2011,11,22,15,50,997.94
2011,11,22,15,51,997.94
2011,11,22,15,52,997.94
2011,11,22,15,53,997.94
2011,11,22,15,54,997.94
2011,11,22,15,55,997.94
2011,11,22,15,56,997.94
2011,11,22,15,57,997.94
2011,11,22,15,58,997.94
2011,11,22,15,59,997.94
2011,11,22,16,00,997.90
2011,11,22,16,01,997.90
2011,11,22,16,02,997.90
2011,11,22,16,03,997.90
2011,11,22,16,04,997.90
2011,11,22,16,05,997.90
2011,11,22,16,06,997.90
2011,11,22,16,07,997.90
2011,11,22,16,08,997.90
2011,11,22,16,09,997.90
2011,11,22,16,10,997.90
2011,11,22,16,11,997.90
2011,11,22,16,12,997.90
2011,11,22,16,13,997.90
2011,11,22,16,14,997.90
2011,11,22,16,15,997.80
2011,11,22,16,16,997.80
2011,11,22,16,17,997.80
2011,11,22,16,18,997.80
2011,11,22,16,19,997.80
2011,11,22,16,20,997.80
2011,11,22,16,21,997.80
2011,11,22,16,22,997.80
2011,11,22,16,23,997.80
2011,11,22,16,24,997.80
2011,11,22,16,25,997.80
2011,11,22,16,26,997.80
2011,11,22,16,27,997.80
2011,11,22,16,28,997.80
2011,11,22,16,29,997.80
2011,11,22,16,30,997.54
2011,11,22,16,31,997.53
2011,11,22,16,32,997.53
2011,11,22,16,33,997.53
2011,11,22,16,34,997.53
2011,11,22,16,35,997.53
2011,11,22,16,36,997.53
2011,11,22,16,37,997.53
2011,11,22,16,38,997.53
2011,11,22,16,39,997.53
2011,11,22,16,40,997.53
2011,11,22,16,41,997.53
2011,11,22,16,42,997.53
2011,11,22,16,43,997.53
2011,11,22,16,44,997.53
2011,11,22,16,45,997.37
2011,11,22,16,46,997.36
2011,11,22,16,47,997.36
2011,11,22,16,48,997.36
2011,11,22,16,49,997.36
2011,11,22,16,50,997.36
2011,11,22,16,51,997.36
2011,11,22,16,52,997.36
2011,11,22,16,53,997.36
2011,11,22,16,54,997.36